Meteo orario Zagorzyn

Oggi, 26 Novenbre, Giovedi

Tempo Temperatura Precipitazioni Vento Pressione Umidità
00:00 +1°C° 0 mm 1 m/s 728 mm Hg 66%
01:00 +1°C° 0 mm 1 m/s 728 mm Hg 66%
02:00 0°C° 0 mm 1 m/s 728 mm Hg 66%
03:00 0°C° 0 mm 1 m/s 728 mm Hg 66%
04:00 0°C° 0 mm 1 m/s 728 mm Hg 65%
05:00 0°C° 0 mm 1 m/s 728 mm Hg 67%
06:00 0°C° 0 mm 1 m/s 728 mm Hg 68%
07:00 0°C° 0 mm 1 m/s 728 mm Hg 68%
08:00 +1°C° 0 mm 1 m/s 728 mm Hg 62%
09:00 +3°C° 0 mm 1 m/s 728 mm Hg 57%
10:00 +4°C° 0 mm 1 m/s 728 mm Hg 51%
11:00 +5°C° 0 mm 1 m/s 728 mm Hg 50%
12:00 +6°C° 0 mm 1 m/s 728 mm Hg 50%
13:00 +7°C° 0 mm 1 m/s 728 mm Hg 49%
14:00 +5°C° 0 mm 1 m/s 728 mm Hg 57%
15:00 +3°C° 0 mm 1 m/s 727 mm Hg 65%
16:00 +2°C° 0 mm 1 m/s 727 mm Hg 73%
17:00 +1°C° 0 mm 1 m/s 727 mm Hg 75%
18:00 +1°C° 0 mm 1 m/s 727 mm Hg 77%
19:00 +1°C° 0 mm 1 m/s 727 mm Hg 79%
20:00 +1°C° 0 mm 1 m/s 727 mm Hg 77%
21:00 +1°C° 0 mm 1 m/s 727 mm Hg 76%
22:00 +1°C° 0 mm 1 m/s 727 mm Hg 75%
23:00 +1°C° 0 mm 1 m/s 727 mm Hg 73%

Domani, 27 Novenbre, Venerdi

Tempo Temperatura Precipitazioni Vento Pressione Umidità
00:00 +1°C° 0 mm 1 m/s 727 mm Hg 71%
01:00 +2°C° 0 mm 1 m/s 727 mm Hg 68%
02:00 +2°C° 0 mm 1 m/s 727 mm Hg 68%
03:00 +2°C° 0 mm 1 m/s 727 mm Hg 67%
04:00 +2°C° 0 mm 1 m/s 726 mm Hg 67%
05:00 +2°C° 0 mm 1 m/s 726 mm Hg 66%
06:00 +2°C° 0 mm 1 m/s 727 mm Hg 66%
07:00 +3°C° 0 mm 1 m/s 727 mm Hg 66%
08:00 +4°C° 0 mm 1 m/s 727 mm Hg 66%
09:00 +5°C° 0 mm 1 m/s 727 mm Hg 66%
10:00 +5°C° 0 mm 0 m/s 727 mm Hg 65%
11:00 +5°C° 0 mm 0 m/s 727 mm Hg 67%
12:00 +6°C° 0 mm 1 m/s 727 mm Hg 69%
13:00 +7°C° 0 mm 1 m/s 727 mm Hg 70%
14:00 +6°C° 0 mm 1 m/s 726 mm Hg 77%
15:00 +5°C° 0 mm 1 m/s 726 mm Hg 83%
16:00 +3°C° 0 mm 0 m/s 726 mm Hg 90%
17:00 +3°C° 0.1 mm 0 m/s 726 mm Hg 91%
18:00 +3°C° 0.1 mm 0 m/s 726 mm Hg 93%
19:00 +2°C° 0.1 mm 0 m/s 726 mm Hg 94%
20:00 +2°C° 0.2 mm 0 m/s 726 mm Hg 95%
21:00 +2°C° 0.2 mm 0 m/s 726 mm Hg 96%
22:00 +2°C° 0.2 mm 0 m/s 726 mm Hg 97%
23:00 +2°C° 0.3 mm 0 m/s 726 mm Hg 97%

Dopodomani, 28 Novenbre, Sabato

Tempo Temperatura Precipitazioni Vento Pressione Umidità
00:00 +3°C° 0.3 mm 1 m/s 725 mm Hg 98%
01:00 +3°C° 0.3 mm 1 m/s 725 mm Hg 98%
02:00 +3°C° 0.3 mm 1 m/s 725 mm Hg 97%
03:00 +3°C° 0.3 mm 1 m/s 725 mm Hg 97%
04:00 +3°C° 0.3 mm 1 m/s 724 mm Hg 96%
05:00 +3°C° 0.1 mm 1 m/s 724 mm Hg 95%
06:00 +2°C° 0.1 mm 1 m/s 724 mm Hg 94%
07:00 +2°C° 0.1 mm 1 m/s 724 mm Hg 93%
08:00 +2°C° 0.1 mm 1 m/s 724 mm Hg 91%
09:00 +2°C° 0.1 mm 2 m/s 724 mm Hg 88%
10:00 +2°C° 0.1 mm 2 m/s 724 mm Hg 85%
11:00 +2°C° 0.2 mm 2 m/s 724 mm Hg 87%
12:00 +2°C° 0.2 mm 2 m/s 724 mm Hg 89%
13:00 0°C° 0.2 mm 3 m/s 724 mm Hg 90%
14:00 +1°C° 0.3 mm 2 m/s 724 mm Hg 92%
15:00 -1°C° 0.3 mm 2 m/s 723 mm Hg 94%
16:00 +1°C° 0.3 mm 1 m/s 723 mm Hg 96%
17:00 -2°C° 0.8 mm 2 m/s 724 mm Hg 96%
18:00 -2°C° 0.8 mm 2 m/s 724 mm Hg 96%
19:00 -2°C° 0.8 mm 3 m/s 724 mm Hg 96%
20:00 -2°C° 0.5 mm 2 m/s 724 mm Hg 96%
21:00 -3°C° 0.5 mm 2 m/s 725 mm Hg 95%
22:00 -3°C° 0.5 mm 2 m/s 725 mm Hg 95%
23:00 -4°C° 0.2 mm 2 m/s 725 mm Hg 95%

29 Novenbre, Domenica

Tempo Temperatura Precipitazioni Vento Pressione Umidità
00:00 -4°C° 0.2 mm 2 m/s 725 mm Hg 96%
01:00 -2°C° 0.2 mm 1 m/s 725 mm Hg 96%
02:00 -2°C° 0.1 mm 1 m/s 725 mm Hg 96%
03:00 -3°C° 0.1 mm 1 m/s 725 mm Hg 96%
04:00 -3°C° 0.1 mm 1 m/s 725 mm Hg 96%
05:00 -3°C° 0 mm 1 m/s 725 mm Hg 96%
06:00 -3°C° 0 mm 1 m/s 725 mm Hg 96%
07:00 -4°C° 0 mm 1 m/s 725 mm Hg 95%
08:00 -3°C° 0 mm 1 m/s 725 mm Hg 91%
09:00 -2°C° 0 mm 1 m/s 725 mm Hg 86%
10:00 -1°C° 0 mm 1 m/s 725 mm Hg 82%
11:00 -1°C° 0 mm 1 m/s 725 mm Hg 81%
12:00 0°C° 0 mm 1 m/s 725 mm Hg 80%
13:00 0°C° 0 mm 1 m/s 725 mm Hg 80%
14:00 0°C° 0.1 mm 1 m/s 724 mm Hg 85%
15:00 -2°C° 0.1 mm 0 m/s 724 mm Hg 89%
16:00 -2°C° 0.1 mm 0 m/s 724 mm Hg 94%
17:00 -3°C° 0.1 mm 0 m/s 724 mm Hg 94%
18:00 -3°C° 0.1 mm 0 m/s 724 mm Hg 95%
19:00 -3°C° 0.1 mm 0 m/s 725 mm Hg 95%
20:00 -3°C° 0 mm 0 m/s 725 mm Hg 95%
21:00 -4°C° 0 mm 0 m/s 725 mm Hg 95%
22:00 -4°C° 0 mm 0 m/s 725 mm Hg 94%
23:00 -4°C° 0 mm 0 m/s 725 mm Hg 94%

30 Novenbre, Lunedi

Tempo Temperatura Precipitazioni Vento Pressione Umidità
00:00 -4°C° 0 mm 0 m/s 725 mm Hg 94%
01:00 -4°C° 0 mm 0 m/s 726 mm Hg 94%
02:00 -4°C° 0 mm 0 m/s 726 mm Hg 95%
03:00 -4°C° 0 mm 0 m/s 726 mm Hg 96%
04:00 -3°C° 0 mm 0 m/s 727 mm Hg 96%
05:00 -4°C° 0 mm 0 m/s 727 mm Hg 96%
06:00 -4°C° 0 mm 0 m/s 728 mm Hg 97%
07:00 -4°C° 0 mm 0 m/s 728 mm Hg 97%
08:00 -2°C° 0 mm 1 m/s 729 mm Hg 94%
09:00 -1°C° 0 mm 1 m/s 729 mm Hg 91%
10:00 -1°C° 0 mm 1 m/s 729 mm Hg 88%
11:00 0°C° 0 mm 1 m/s 730 mm Hg 86%
12:00 0°C° 0 mm 1 m/s 730 mm Hg 84%
13:00 0°C° 0 mm 1 m/s 730 mm Hg 83%
14:00 0°C° 0 mm 1 m/s 730 mm Hg 85%
15:00 -1°C° 0 mm 1 m/s 730 mm Hg 88%
16:00 -1°C° 0 mm 1 m/s 730 mm Hg 91%
17:00 -1°C° 0 mm 1 m/s 731 mm Hg 91%
18:00 -1°C° 0 mm 1 m/s 731 mm Hg 91%
19:00 -2°C° 0 mm 1 m/s 731 mm Hg 92%
20:00 -2°C° 0 mm 1 m/s 731 mm Hg 92%
21:00 -4°C° 0 mm 0 m/s 732 mm Hg 93%
22:00 -4°C° 0 mm 0 m/s 732 mm Hg 94%
23:00 -4°C° 0 mm 0 m/s 732 mm Hg 94%

1 Dicembre, Martedi

Tempo Temperatura Precipitazioni Vento Pressione Umidità
00:00 -4°C° 0 mm 0 m/s 731 mm Hg 94%
01:00 -5°C° 0 mm 0 m/s 731 mm Hg 94%
02:00 -5°C° 0 mm 0 m/s 731 mm Hg 93%
03:00 -5°C° 0 mm 0 m/s 731 mm Hg 93%
04:00 -5°C° 0 mm 0 m/s 731 mm Hg 93%
05:00 -6°C° 0 mm 0 m/s 731 mm Hg 93%
06:00 -6°C° 0 mm 0 m/s 732 mm Hg 92%
07:00 -6°C° 0 mm 0 m/s 732 mm Hg 92%
08:00 -4°C° 0 mm 1 m/s 732 mm Hg 89%
09:00 -3°C° 0 mm 1 m/s 732 mm Hg 86%
10:00 -1°C° 0 mm 1 m/s 732 mm Hg 82%
11:00 -1°C° 0 mm 1 m/s 732 mm Hg 83%
12:00 -1°C° 0 mm 1 m/s 732 mm Hg 83%
13:00 0°C° 0 mm 1 m/s 731 mm Hg 83%
14:00 -1°C° 0 mm 1 m/s 731 mm Hg 86%
15:00 -1°C° 0 mm 1 m/s 731 mm Hg 89%
16:00 -2°C° 0 mm 1 m/s 731 mm Hg 92%
17:00 -2°C° 0 mm 1 m/s 731 mm Hg 92%
18:00 -2°C° 0 mm 1 m/s 731 mm Hg 92%
19:00 -2°C° 0 mm 1 m/s 731 mm Hg 93%
20:00 -2°C° 0 mm 1 m/s 731 mm Hg 93%
21:00 -2°C° 0 mm 1 m/s 731 mm Hg 93%
22:00 -2°C° 0 mm 1 m/s 731 mm Hg 93%
23:00 -2°C° 0 mm 1 m/s 731 mm Hg 93%
Mostrare altro

Abbiamo bisogno del tuo consenso

Meteoprog e i nostri fornitori di servizi possono memorizzare e accedere a dati personali come cookie, identificatori di dispositivi o altre tecnologie simili sul tuo dispositivo e possono elaborare tali dati per personalizzare i contenuti e gli annunci, nonché fornire funzionalità dei social media e analizzarne il traffico.

  • Archiviare e/o accedere alle informazioni sul tuo dispositivo

    Cookie, identificatori di dispositivi o altre informazioni possono essere memorizzati o resi accessibili sul tuo dispositivo per le finalità sopra indicate.

  • Annunci e contenuti personalizzati, misurazione di annunci e contenuti, approfondimenti sul pubblico e sviluppo di prodotti

    Gli annunci e i contenuti possono essere personalizzati in base a un profilo. È possibile aggiungere più dati per personalizzare meglio annunci e contenuti. È possibile misurare il rendimento degli annunci e dei contenuti. È possibile ricavare informazioni sul pubblico che ha visto gli annunci e i contenuti. Tali dati possono essere utilizzati per sviluppare o migliorare l'esperienza, i sistemi e il software dell'utente.

Cliccando su “Accetto”, acconsenti all'uso di cookie, identificatori di dispositivo, web beacon o altre tecnologie simili. Puoi modificare le impostazioni nel browser del tuo dispositivo.

Per determinati scopi, è possibile fare affidamento su interessi legali, piuttosto che sul consenso. Puoi approfondire questo argomento consultando la nostra Informativa sulla privacy e sui cookie.